Weather History for Sheridan, WY

Change the Weather History Date:

Saturday, July 6, 2013

  Actual Average Record
Temperature  
Mean Temperature 70 °F 68 °F  
Max Temperature 85 °F 85 °F 105 °F (1983)
Min Temperature 55 °F 52 °F 42 °F (1986)
Degree Days  
Heating Degree Days 0 1  
Month to date heating degree days 0 10  
Since 1 June heating degree days 120 159  
Since 1 July heating degree days 0 10  
Cooling Degree Days 5 5  
Month to date cooling degree days 41 25  
Year to date cooling degree days 97 75  
Since 1 June cooling degree days 89 71  
Growing Degree Days 20 (Base 50)    
Moisture  
Dew Point 55 °F    
Average Humidity 65    
Maximum Humidity 93    
Minimum Humidity 37    
Precipitation  
Precipitation 0.33 in 0.04 in 0.97 in (1961)
Month to date precipitation 0.36 0.24  
Year to date precipitation 9.87 8.39  
Sea Level Pressure  
Sea Level Pressure 29.85 in    
Wind  
Wind Speed 6 mph (WSW)    
Max Wind Speed 40 mph    
Max Gust Speed 51 mph    
Visibility 9 miles    
Events Rain , Thunderstorm    
T = Trace of Precipitation, MM = Missing Value Source: NWS Daily Summary

Daily Weather History Graph

Daily Weather History Graph

Search for Another Location

Airport:

Trip Planner

Search our weather history database for the weather conditions in past years. The results will help you decide how hot, cold, wet, or windy it might be!

Date:

Astronomy

Jul. 06, 2013 Rise Set
Actual Time 5:29 AM MDT 8:55 PM MDT
Civil Twilight 4:52 AM MDT 9:32 PM MDT
Nautical Twilight 4:04 AM MDT 10:20 PM MDT
Astronomical Twilight 3:03 AM MDT 11:20 PM MDT
Moon 4:19 AM MDT (7/6) 7:36 PM MDT (7/6)
Length of Visible Light 16h 39m
Length of Day
15h 26m
Waning Crescent, 2% of the Moon is Illuminated
Jul 6
Waning Crescent
Jul 8
New
Jul 15
First Quarter
Jul 22
Full
Jul 29
Last Quarter

Hourly Weather History & Observations

Time (MDT) Temp. Heat Index Dew Point Humidity Pressure Visibility Wind Dir Wind Speed Gust Speed Precip Events Conditions
12:53 AM 60.1 °F - 55.9 °F 86% 29.76 in 10.0 mi North 4.6 mph - N/A   Partly Cloudy
1:53 AM 59.0 °F - 55.9 °F 90% 29.73 in 10.0 mi Calm Calm - N/A   Scattered Clouds
2:53 AM 59.0 °F - 55.9 °F 90% 29.74 in 10.0 mi Calm Calm - N/A   Scattered Clouds
3:53 AM 57.0 °F - 54.0 °F 89% 29.75 in 10.0 mi Calm Calm - N/A   Mostly Cloudy
4:53 AM 55.9 °F - 54.0 °F 93% 29.79 in 10.0 mi WSW 3.5 mph - N/A   Clear
5:53 AM 55.0 °F - 51.1 °F 86% 29.81 in 10.0 mi Calm Calm - N/A   Clear
6:53 AM 63.0 °F - 55.0 °F 75% 29.81 in 10.0 mi WNW 15.0 mph - N/A   Clear
7:53 AM 64.9 °F - 57.0 °F 75% 29.83 in 10.0 mi WNW 17.3 mph 26.5 mph N/A   Clear
8:53 AM 66.9 °F - 55.9 °F 68% 29.87 in 10.0 mi NW 19.6 mph - N/A   Clear
9:53 AM 72.0 °F - 57.0 °F 59% 29.86 in 10.0 mi NW 11.5 mph - N/A   Partly Cloudy
10:53 AM 73.0 °F - 55.9 °F 55% 29.87 in 10.0 mi WNW 9.2 mph - N/A   Partly Cloudy
11:53 AM 75.9 °F - 55.9 °F 50% 29.87 in 10.0 mi Variable 3.5 mph - N/A   Clear
12:53 PM 77.0 °F - 55.9 °F 48% 29.87 in 10.0 mi Calm Calm - N/A   Clear
1:53 PM 80.1 °F 80.2 °F 55.9 °F 43% 29.86 in 10.0 mi WNW 9.2 mph - N/A   Partly Cloudy
2:53 PM 82.0 °F 81.4 °F 55.0 °F 39% 29.85 in 10.0 mi Variable 5.8 mph - N/A   Clear
3:53 PM 84.0 °F 82.9 °F 55.0 °F 37% 29.84 in 10.0 mi Variable 5.8 mph - N/A   Clear
4:53 PM 84.9 °F 83.6 °F 55.0 °F 36% 29.81 in 10.0 mi Calm Calm - N/A   Partly Cloudy
5:53 PM 82.0 °F 81.3 °F 54.0 °F 38% 29.82 in 10.0 mi Calm Calm - N/A   Clear
6:53 PM 78.1 °F - 59.0 °F 52% 29.83 in 10.0 mi SW 5.8 mph - N/A Thunderstorm Clear
7:12 PM 64.4 °F - 51.8 °F 64% 29.95 in 4.0 mi WSW 39.1 mph 50.6 mph 0.00 in Rain , Thunderstorm Thunderstorms and Rain
7:14 PM 62.6 °F - 51.8 °F 68% 29.96 in 1.8 mi WSW 35.7 mph 50.6 mph 0.02 in Rain , Thunderstorm Heavy Thunderstorms and Rain
7:29 PM 62.6 °F - 53.6 °F 72% 29.93 in 3.0 mi SSE 4.6 mph - 0.33 in Rain , Thunderstorm Light Thunderstorms and Rain
7:53 PM 63.0 °F - 57.9 °F 84% 29.85 in 10.0 mi South 9.2 mph - 0.33 in Thunderstorm Scattered Clouds
8:12 PM 62.6 °F - 55.4 °F 77% 29.93 in 10.0 mi South 5.8 mph - N/A   Partly Cloudy
8:53 PM 62.1 °F - 57.0 °F 84% 29.89 in 10.0 mi West 5.8 mph - N/A   Clear
9:53 PM 62.1 °F - 57.0 °F 84% 29.92 in 10.0 mi SE 10.4 mph - N/A   Clear
10:53 PM 62.1 °F - 57.0 °F 84% 29.90 in 10.0 mi SSW 4.6 mph - N/A   Clear
11:53 PM 61.0 °F - 55.9 °F 83% 29.89 in 10.0 mi Calm Calm - N/A   Clear